CDT,Max TemperatureF,Mean TemperatureF,Min TemperatureF,Max Dew PointF,MeanDew PointF,Min DewpointF,Max Humidity, Mean Humidity, Min Humidity, Max Sea Level PressureIn, Mean Sea Level PressureIn, Min Sea Level PressureIn, Max VisibilityMiles, Mean VisibilityMiles, Min VisibilityMiles, Max Wind SpeedMPH, Mean Wind SpeedMPH, Max Gust SpeedMPH,PrecipitationIn, CloudCover, Events, WindDirDegrees
2013-4-1,37,30,22,21,19,16,86,66,45,30.31,30.25,30.12,10,10,10,20,13,24,0.00,1,,339
2013-4-2,44,32,19,26,21,15,94,66,34,30.34,30.31,30.28,10,10,10,14,6,20,0.00,1,,340
2013-4-3,51,38,25,27,23,21,89,63,33,30.39,30.32,30.23,10,10,7,14,6,20,0.00,1,,149
2013-4-4,60,43,26,37,29,22,84,60,31,30.23,30.13,30.05,10,10,10,16,9,24,0.00,0,,278
2013-4-5,60,44,29,34,28,20,92,56,23,30.20,30.06,29.79,10,10,10,21,10,24,0.00,1,,108
2013-4-6,67,56,44,44,39,35,79,54,40,29.80,29.67,29.57,10,10,10,28,14,37,0.00,2,,220
2013-4-7,66,49,32,41,37,31,96,65,35,29.92,29.81,29.66,10,8,0,18,8,24,0.00,3,Fog-Rain-Snow,84
2013-4-8,75,59,43,51,46,38,93,64,26,29.79,29.70,29.61,10,9,0,15,8,21,0.00,2,Fog-Rain,171
2013-4-9,56,48,40,51,45,38,93,90,81,29.96,29.79,29.69,10,4,1,23,16,30,1.00,8,Rain,41
2013-4-10,41,39,37,38,37,35,93,90,87,29.96,29.85,29.74,10,8,2,28,14,37,0.55,8,Rain,48
2013-4-11,39,38,36,37,35,33,96,90,81,29.73,29.63,29.59,10,6,0,18,7,24,0.25,8,Fog-Rain,263
2013-4-12,39,36,33,33,30,25,91,80,69,29.96,29.80,29.61,10,10,5,22,15,29,0.00,8,,301
2013-4-13,49,40,30,36,30,25,86,67,49,30.00,29.92,29.80,10,10,10,16,10,22,0.00,5,Rain,276
2013-4-14,68,54,41,54,43,35,90,79,57,29.79,29.56,29.38,10,10,5,30,16,37,0.34,7,Rain,149
2013-4-15,45,40,34,38,31,26,88,73,61,30.07,29.86,29.65,10,10,10,25,11,32,0.00,5,,283
2013-4-16,50,41,32,33,31,29,89,69,48,30.25,30.17,30.06,10,10,10,15,7,21,0.00,5,,9
2013-4-17,45,42,40,40,38,33,94,85,63,30.20,29.94,29.68,10,8,1,26,11,38,1.37,8,Rain,54
2013-4-18,40,36,33,38,34,29,94,89,81,29.78,29.65,29.58,10,6,1,26,17,34,0.23,8,Rain,331
2013-4-19,42,36,30,30,26,23,87,69,50,30.08,29.85,29.72,10,10,7,28,20,39,0.00,4,,306
2013-4-20,47,36,26,27,23,16,86,59,30,30.27,30.20,30.08,10,10,10,16,7,17,0.00,2,,32
2013-4-21,68,54,41,48,36,26,90,55,22,30.20,30.13,30.03,10,9,2,33,17,44,0.25,6,Rain,169
2013-4-22,63,49,35,51,45,32,92,83,52,30.16,30.05,29.90,10,9,4,24,10,31,0.35,7,Rain,177
2013-4-23,41,36,32,32,28,24,88,75,58,30.16,30.13,30.09,10,10,10,23,18,30,0.00,6,,348
2013-4-24,55,41,27,35,26,21,89,61,28,30.16,30.11,30.01,10,10,10,23,11,32,0.00,1,Rain,274
2013-4-25,64,47,30,34,28,22,90,55,24,30.27,30.18,30.09,10,10,10,20,9,26,0.00,0,,242
2013-4-26,68,57,46,46,41,35,84,56,39,30.20,30.12,30.06,10,10,10,29,15,34,0.00,1,,190
2013-4-27,70,56,42,46,43,40,92,64,35,30.22,30.10,29.98,10,9,4,15,6,16,0.00,3,,167
2013-4-28,78,60,42,50,44,40,92,59,26,30.00,29.86,29.74,10,10,7,18,10,24,0.00,0,,194
2013-4-29,82,68,54,58,52,48,84,59,30,29.78,29.68,29.53,10,10,10,23,8,30,0.00,1,,153
2013-4-30,80,68,56,59,47,41,70,44,26,29.89,29.67,29.51,10,10,7,29,19,37,0.00,3,,276